This is the latest recevied weather packets stored in our database for station/object K1BES. If no packets are shown the sender has not sent any weather packets the latest 10 day(s).
| Time | Temp. | Humidity | Pressure | Rain* | Wind** | Luminosity | Snow |
|---|---|---|---|---|---|---|---|
| 1777468504 | 27.78° C | 70% | 1018.9 hPa | 0 mm | - | 343 W/m² | - |
| 1777468201 | 27.78° C | 70% | 1018.9 hPa | 0 mm | - | 336 W/m² | - |
| 1777467897 | 27.22° C | 71% | 1018.9 hPa | 0 mm | - | 318 W/m² | - |
| 1777467592 | 27.22° C | 72% | 1019.1 hPa | 0 mm | - | 300 W/m² | - |
| 1777467288 | 26.67° C | 74% | 1018.8 hPa | 0 mm | - | 277 W/m² | - |
| 1777466984 | 26.11° C | 75% | 1018.9 hPa | 0 mm | - | 259 W/m² | - |
| 1777466682 | 25.56° C | 75% | 1019 hPa | 0 mm | - | 195 W/m² | - |
| 1777466378 | 25° C | 77% | 1018.9 hPa | 0 mm | - | 173 W/m² | - |
| 1777466074 | 25° C | 78% | 1018.7 hPa | 0 mm | - | 193 W/m² | - |
| 1777465771 | 24.44° C | 80% | 1018.5 hPa | 0 mm | - | 150 W/m² | - |
| 1777465467 | 23.89° C | 83% | 1018.5 hPa | 0 mm | - | 117 W/m² | - |
| 1777465166 | 23.33° C | 84% | 1018.6 hPa | 0 mm | - | 100 W/m² | - |
| 1777464861 | 22.78° C | 88% | 1018.6 hPa | 0 mm | - | 89 W/m² | - |
| 1777464557 | 22.22° C | 92% | 1018.4 hPa | 0 mm | - | 79 W/m² | - |
| 1777464253 | 21.11° C | 95% | 1018.6 hPa | 0 mm | - | 70 W/m² | - |
| 1777463948 | 20.56° C | 96% | 1018.4 hPa | 0 mm | - | 62 W/m² | - |
| 1777463644 | 20.56° C | 96% | 1018.4 hPa | 0 mm | - | 38 W/m² | - |
| 1777463339 | 20° C | 96% | 1018.4 hPa | 0 mm | - | 34 W/m² | - |
| 1777463035 | 20° C | 96% | 1018.2 hPa | 0 mm | - | 30 W/m² | - |
| 1777462731 | 20° C | 96% | 1018.1 hPa | 0 mm | - | 27 W/m² | - |
| 1777462426 | 20° C | 96% | 1017.9 hPa | 0 mm | - | 24 W/m² | - |
| 1777462123 | 19.44° C | 96% | 1017.8 hPa | 0 mm | - | 22 W/m² | - |
| 1777461820 | 19.44° C | 96% | 1017.8 hPa | 0 mm | - | 18 W/m² | - |
| 1777461515 | 19.44° C | 96% | 1018 hPa | 0 mm | - | 16 W/m² | - |
| 1777461212 | 19.44° C | 96% | 1017.8 hPa | 0 mm | - | 13 W/m² | - |
* Rain latest hour (hover to see other rain measurements)
** Current wind speed in m/s (hover to see current wind gust speed)